Date String (YYYY-MM-DD hh:mm:ss) UTC,Instrument flags,Ambient pressure (hPa),Sample flow (lpm),Bypass flow (lpm),Sample temperature (°C),Ambient temperature (°C),ASC tube jacket temperature (°C),LED temperature (°C),Box temperature (°C),Sample RH (%),Span deviation,Mass concentration (μg/m³),Mass concentration (μg/m³),Mass concentration (μg/m³)
DateTimeUTC,F1_M11,P_M11,Q1_M11,Q2_M11,T1_M11,T2_M11,T3_M11,T4_M11,T5_M11,U1_M11,ZSPAN_M11,X0_M11,X2_M11,X1_M11
2022-05-23 15:00:00,,0825.4,5.00,0.00,28.5,27.4,00.0,37.4,30.3,21.0,0000.0,0000.01,0000.00,0000.00
2022-05-23 15:01:00,,0825.5,5.00,0.00,28.5,27.4,00.0,37.4,30.3,20.8,0000.0,0000.01,0000.00,0000.00
2022-05-23 15:02:00,,0825.5,5.00,0.00,28.5,27.4,00.0,37.4,30.3,20.9,0000.0,0000.01,0000.00,0000.00
2022-05-23 15:03:00,,0825.5,5.00,0.00,28.5,27.4,00.0,37.4,30.3,20.9,0000.0,0000.01,0000.00,0000.00
2022-05-23 15:04:00,,0825.5,4.99,0.00,28.5,27.4,00.0,37.4,30.3,21.0,0000.0,0000.00,0000.00,0000.00
2022-05-23 15:05:00,,0825.5,4.99,0.00,28.5,27.4,00.0,37.4,30.3,20.7,0000.0,0000.00,0000.00,0000.00
2022-05-23 15:06:00,,0825.4,5.00,0.00,28.5,27.4,00.0,37.4,30.3,20.8,0000.0,0000.00,0000.00,0000.00
2022-05-23 15:07:00,,0825.4,5.00,0.00,28.5,27.4,00.0,37.4,30.3,20.8,0000.0,0000.00,0000.00,0000.00
2022-05-23 15:08:00,,0825.4,5.00,0.00,28.5,27.4,00.0,37.4,30.3,20.7,0000.0,0000.00,0000.00,0000.00
2022-05-23 15:09:00,,0825.4,5.00,0.00,28.5,27.4,00.0,37.4,30.3,21.0,0000.0,0000.00,0000.00,0000.00
2022-05-23 15:10:00,,0825.4,5.00,0.00,28.4,27.4,00.0,37.4,30.3,20.8,0000.0,0000.00,0000.00,0000.00
2022-05-23 15:11:00,,0825.4,4.99,0.00,28.4,27.3,00.0,37.4,30.2,20.8,0000.0,0000.00,0000.00,0000.00
2022-05-23 15:12:00,,0825.4,5.00,0.00,28.4,27.3,00.0,37.4,30.2,20.7,0000.0,0000.00,0000.00,0000.00
2022-05-23 15:13:00,,0825.3,5.00,0.00,28.4,27.3,00.0,37.4,30.2,20.7,0000.0,0000.00,0000.00,0000.00
2022-05-23 15:14:00,,0825.3,5.00,0.00,28.4,27.3,00.0,37.4,30.2,21.0,0000.0,0000.00,0000.00,0000.00
2022-05-23 15:15:00,,0825.3,5.01,0.00,28.4,27.3,00.0,37.4,30.2,21.0,0000.0,0000.00,0000.00,0000.00
2022-05-23 15:16:00,,0825.3,5.01,0.00,28.4,27.3,00.0,37.4,30.2,21.1,0000.0,0000.00,0000.00,0000.00
2022-05-23 15:17:00,,0825.3,5.00,0.00,28.4,27.3,00.0,37.4,30.2,21.6,0000.0,0000.00,0000.00,0000.00
2022-05-23 15:18:00,,0825.2,5.01,0.00,28.4,27.3,00.0,37.4,30.2,22.2,0000.0,0000.03,0000.01,0000.00
2022-05-23 15:19:00,,0825.2,4.99,0.00,28.4,27.3,00.0,37.4,30.2,22.9,0000.0,0000.04,0000.01,0000.00
2022-05-23 15:20:00,,0825.2,4.99,0.00,28.4,27.3,00.0,37.4,30.2,23.1,0000.0,0000.04,0000.01,0000.00
2022-05-23 15:21:00,,0825.3,5.00,0.00,28.4,27.3,00.0,37.4,30.2,23.1,0000.0,0000.04,0000.01,0000.00
2022-05-23 15:22:00,,0825.2,5.00,0.00,28.4,27.2,00.0,37.4,30.2,22.8,0000.0,0000.04,0000.01,0000.00
2022-05-23 15:23:00,,0825.2,5.00,0.00,28.3,27.2,00.0,37.4,30.1,22.6,0000.0,0000.04,0000.01,0000.00
2022-05-23 15:24:00,,0825.2,5.01,0.00,28.4,27.2,00.0,37.3,30.2,23.0,0000.0,0000.04,0000.02,0000.01
2022-05-23 15:25:00,,0825.3,5.00,0.00,28.3,27.2,00.0,37.3,30.2,22.9,0000.0,0000.04,0000.02,0000.01
2022-05-23 15:26:00,,0825.3,5.00,0.00,28.3,27.2,00.0,37.3,30.2,22.9,0000.0,0000.04,0000.02,0000.01
2022-05-23 15:27:00,,0825.3,5.00,0.00,28.3,27.2,00.0,37.3,30.2,23.0,0000.0,0000.04,0000.02,0000.01
2022-05-23 15:28:00,,0825.3,5.00,0.00,28.3,27.3,00.0,37.3,30.2,23.0,0000.0,0000.04,0000.02,0000.01
2022-05-23 15:29:00,,0825.3,5.01,0.00,28.3,27.3,00.0,37.3,30.2,23.5,0000.0,0000.01,0000.01,0000.00
2022-05-23 15:30:00,,0825.4,4.99,0.00,28.4,27.3,00.0,37.3,30.2,23.4,0000.0,0000.01,0000.00,0000.00
2022-05-23 15:31:00,,0825.3,4.99,0.00,28.3,27.3,00.0,37.3,30.2,23.8,0000.0,0000.01,0000.01,0000.01
2022-05-23 15:32:00,,0825.3,5.01,0.00,28.4,27.3,00.0,37.3,30.2,24.1,0000.0,0000.01,0000.01,0000.01
2022-05-23 15:33:00,,0825.3,5.00,0.00,28.4,27.3,00.0,37.3,30.2,23.4,0000.0,0000.01,0000.01,0000.01
2022-05-23 15:34:00,,0825.3,5.00,0.00,28.4,27.3,00.0,37.3,30.2,22.8,0000.0,0000.01,0000.01,0000.01
2022-05-23 15:35:00,,0825.3,4.99,0.00,28.4,27.3,00.0,37.3,30.2,22.2,0000.0,0000.00,0000.00,0000.00
2022-05-23 15:36:00,,0825.3,5.00,0.00,28.4,27.3,00.0,37.3,30.2,21.9,0000.0,0000.01,0000.01,0000.00
2022-05-23 15:37:00,,0825.3,5.00,0.00,28.4,27.4,00.0,37.3,30.2,21.9,0000.0,0000.01,0000.01,0000.01
2022-05-23 15:38:00,,0825.3,5.01,0.00,28.4,27.4,00.0,37.3,30.3,22.1,0000.0,0000.01,0000.01,0000.01
2022-05-23 15:39:00,,0825.3,5.01,0.00,28.4,27.4,00.0,37.3,30.3,22.6,0000.0,0000.01,0000.01,0000.01
2022-05-23 15:40:00,,0825.3,5.00,0.00,28.4,27.4,00.0,37.3,30.3,21.6,0000.0,0000.01,0000.01,0000.01
2022-05-23 15:41:00,,0825.3,5.01,0.00,28.4,27.4,00.0,37.3,30.3,22.1,0000.0,0000.01,0000.01,0000.00
2022-05-23 15:42:00,,0825.3,5.00,0.00,28.4,27.4,00.0,37.3,30.3,23.1,0000.0,0000.01,0000.01,0000.00
2022-05-23 15:43:00,,0825.3,4.98,0.00,28.4,27.5,00.0,37.3,30.3,23.0,0000.0,0000.02,0000.01,0000.01
2022-05-23 15:44:00,,0825.3,5.00,0.00,28.4,27.5,00.0,37.4,30.3,22.9,0000.0,0000.03,0000.01,0000.01
2022-05-23 15:45:00,,0825.3,5.01,0.00,28.5,27.5,00.0,37.4,30.3,23.3,0000.0,0000.03,0000.01,0000.01
2022-05-23 15:46:00,,0825.3,5.00,0.00,28.5,27.5,00.0,37.4,30.3,24.2,0000.0,0000.03,0000.01,0000.01
2022-05-23 15:47:00,,0825.3,5.00,0.00,28.5,27.5,00.0,37.4,30.3,22.9,0000.0,0000.02,0000.01,0000.00
2022-05-23 15:48:00,,0825.3,5.00,0.00,28.5,27.5,00.0,37.4,30.3,22.8,0000.0,0000.01,0000.01,0000.00
2022-05-23 15:49:00,,0825.3,4.99,0.00,28.5,27.5,00.0,37.4,30.3,23.0,0000.0,0000.01,0000.01,0000.00
2022-05-23 15:50:00,,0825.3,5.00,0.00,28.5,27.5,00.0,37.4,30.3,23.1,0000.0,0000.01,0000.01,0000.00
2022-05-23 15:51:00,,0825.3,5.00,0.00,28.5,27.5,00.0,37.4,30.3,22.4,0000.0,0000.02,0000.01,0000.00
2022-05-23 15:52:00,,0825.3,5.00,0.00,28.5,27.5,00.0,37.4,30.3,22.3,0000.0,0000.02,0000.01,0000.00
2022-05-23 15:53:00,,0825.3,5.00,0.00,28.5,27.5,00.0,37.4,30.3,22.3,0000.0,0000.02,0000.01,0000.00
2022-05-23 15:54:00,,0825.2,5.00,0.00,28.5,27.5,00.0,37.4,30.3,22.1,0000.0,0000.02,0000.02,0000.00
2022-05-23 15:55:00,,0825.2,5.01,0.00,28.5,27.5,00.0,37.4,30.3,21.7,0000.0,0000.03,0000.02,0000.00
2022-05-23 15:56:00,,0825.2,5.00,0.00,28.5,27.5,00.0,37.4,30.3,22.0,0000.0,0000.03,0000.02,0000.00
2022-05-23 15:57:00,,0825.2,4.99,0.00,28.5,27.5,00.0,37.4,30.3,21.8,0000.0,0000.03,0000.02,0000.00
2022-05-23 15:58:00,,0825.2,5.01,0.00,28.5,27.5,00.0,37.4,30.3,21.8,0000.0,0000.03,0000.02,0000.00
2022-05-23 15:59:00,,0825.2,4.99,0.00,28.5,27.5,00.0,37.4,30.3,22.8,0000.0,0000.04,0000.03,0000.01
